Skip Page Navigation
NASA JPL Caltech
NASA Logo - Jet Propulsion Laboratory + View the NASA Portal
+ Center for Near-Earth Object Studies
JPL Home Earth Solar System Stars & Galaxies Technology
JPL Solar System Dynamics
BODIES ORBITS EPHEMERIDES TOOLS PHYSICAL DATA DISCOVERY FAQ SITE MAP
JPL Small-Body Database Browser
Search: [ help ]  
266092 (2006 SM53)
Classification: Main-belt Asteroid          SPK-ID: 2266092
Ephemeris | Orbit Diagram | Orbital Elements | Mission Design | Physical Parameters | Discovery Circumstances ]

[ show orbit diagram ]
Orbital Elements at Epoch 2459000.5 (2020-May-31.0) TDB
Reference: JPL 9 (heliocentric ecliptic J2000)
 Element Value Uncertainty (1-sigma)   Units 
e .1992348111094927 7.0478e-08  
a 2.337054239753393 1.5257e-08 au
q 1.871431679743487 1.6394e-07 au
i 1.787723138679772 9.1438e-06 deg
node 190.2250403692849 0.00020051 deg
peri 217.9470045257874 0.00020182 deg
M 279.6202372559488 2.4284e-05 deg
tp 2459291.870670843337
(2021-Mar-18.37067084)
8.9946e-05 TDB
period 1304.973265940178
3.57
1.2779e-05
3.499e-08
d
yr
n .275867720355662 2.7015e-09 deg/d
Q 2.8026767997633 1.8297e-08 au
  Orbit Determination Parameters
   # obs. used (total)      177  
   data-arc span      7112 days (19.47 yr)  
   first obs. used      1999-12-07  
   last obs. used      2019-05-28  
   planetary ephem.      DE431  
   SB-pert. ephem.      SB431-N16  
   condition code      0  
   norm. resid. RMS      .56984  
   source      ORB  
   producer      Otto Matic  
   solution date      2019-Sep-24 04:36:14  

Additional Information
 Earth MOID = .8818 au 
 Jupiter MOID = 2.57971 au 
 T_jup = 3.539 
[ show covariance matrix ]

Ephemeris | Orbit Diagram | Orbital Elements | Mission Design | Physical Parameters | Discovery Circumstances ]

Physical Parameter Table
Parameter Symbol Value Units Sigma Reference Notes
absolute magnitude H 17.6   n/a MPO191307  

266092 (2006 SM53)          Discovered 2006-Sep-19 by La Sagra at La Sagra
Reference: 20110218/Numbers.arcLast Updated: 2011-02-22

Alternate Designations
 2006 SM53 = 1999 XP57 
Ephemeris | Orbit Diagram | Orbital Elements | Mission Design | Physical Parameters | Discovery Circumstances ]
ABOUT SSD CREDITS/AWARDS PRIVACY/COPYRIGHT GLOSSARY LINKS
FirstGov 2020-Aug-08 15:37 UT
(server date/time)  
NASA Home Page
Site Manager:   Ryan S. Park
Webmaster  Alan B. Chamberlin